Track COSMOS 2477 (GLONASS) now! COSMOS 2477 (GLONASS) is classified as:
1 37868U 11064B 25199.36612294 -.00000027 00000-0 00000-0 0 9993 2 37868 65.0844 84.2339 0019022 236.9951 331.4559 2.13102994106647